Flag for Israel Weather past 2 weeks in Eilat, Israel

Now
95 °F

Sunny.


Feels Like: 97 °F
Forecast: 83 / 104 °F
Wind: 17 mph from Northeast

Location: Eilat

Current Time: Sep 2, 2015 at 11:48:41 AM

Latest Report: Sep 2, 2015 at 10:50 AM


Visibility: 10 mi

Pressure: 29.83 "Hg

Humidity: 36%

Dew point: 64 °F

Location of EilatLocation

Historic Weather in Eilat — Graph

°F

Eilat temperature yesterday

Maximum temperature yesterday: 102 °F (at 3:50 PM)
Minimum temperature yesterday: 81 °F (at 5:50 AM)
Average temperature yesterday: 95 °F

Past Weeks' High & Low Weather Summary

 TemperatureHumidityPressure
High109 °F (Aug 19, 4:50 PM)62% (Aug 25, 6:50 AM)29.89 "Hg (Aug 25, 6:50 AM)
Low75 °F (Aug 31, 5:50 AM)9% (Aug 20, 6:50 PM)29.62 "Hg (Aug 18, 3:50 PM)
Average95 °F32%29.76 "Hg
* Reported Aug 18 9:50 AM — Sep 2 9:50 AM, Eilat, Weather by CustomWeather, © 2015

Note: Actual official high and low records may vary slightly from our data, if they occured in-between our weather recording intervals... More about our weather records

Advertising

Eilat weather history for previous 24 hours

 ConditionsComfort  
Time TempWeatherWind HumidityBarometerVisibility
9:50 AM
Wed, Sep 2
90 °FSunny.20 mph43%29.83 "Hg10 mi
8:50 AM88 °FSunny.15 mph43%29.86 "Hg10 mi
7:50 AM84 °FSunny.13 mph51%29.86 "Hg10 mi
6:50 AM82 °FClear.8 mph55%29.83 "Hg10 mi
5:50 AM84 °FClear.9 mph51%29.83 "Hg10 mi
9:50 PM
Tue, Sep 1
95 °FClear.8 mph26%29.80 "Hg10 mi
8:50 PM97 °FClear.10 mph22%29.80 "Hg10 mi
7:50 PM97 °FSunny.9 mph16%29.77 "Hg10 mi
6:50 PM99 °FSunny.12 mph16%29.77 "Hg10 mi
5:50 PM102 °FSunny.13 mph14%29.77 "Hg10 mi
4:50 PM102 °FSunny.13 mph14%29.77 "Hg10 mi
3:50 PM102 °FSunny.12 mph13%29.77 "Hg10 mi
2:50 PM100 °FSunny.10 mph17%29.80 "Hg10 mi
1:50 PM100 °FSunny.12 mph20%29.80 "Hg10 mi
12:50 PM99 °FPassing clouds.14 mph21%29.83 "HgN/A
11:50 AM95 °FSunny.16 mph23%29.86 "Hg10 mi
Weather by CustomWeather, © 2015

See weather overviewHow to use our weather pages